Terug naar catalogus

CZ-6A DEB

ActiefSSO
NORAD 54545·DEBRIS·🇨🇳 China

Gelanceerd Nov 11, 2022 vanaf Taiyuan Satellite Launch Center

Loading…

Volgende Passages (komende 24 uur)

TLE

VersSource: Space-Track

Epoch: Sep 14, 2026, 11:14 UTC

1 54545U 22151KV  26257.46860048  .00000445  00000-0  26062-3 0  9994
2 54545  98.8383 258.6418 0055444  27.9998 332.4138 14.12548102197519

Volg CZ-6A DEB in realtime met AllMySat

Download on the App Store